Theta_e
319 318 318 318 318 318 318 318 318 317 316 315 315 315 316 317 319 320 320 321 321 321 321 321 320 320 321 319 317 313 311 312 312 312 313 314 315 316 317 319 328 332 332 336 339 344 349 350 351 352 352 353 352 352 353 353 353 353 353 350 346 348 349 350 353 353 351 353 354 358 356 354 354 356 357 356 357 357 356 356 357 356 356 358 359 354 354 355
318 318 318 318 318 318 318 318 318 318 318 316 316 315 315 316 317 319 320 321 321 321 321 321 320 321 321 320 318 314 312 312 312 313 313 314 314 315 316 317 326 330 333 338 338 344 349 349 351 353 353 353 353 353 353 352 354 354 353 350 348 350 351 351 353 353 353 352 353 356 356 355 354 355 356 357 357 357 357 357 357 357 356 358 357 353 354 354
318 318 318 318 318 318 318 318 318 318 318 318 317 315 315 315 316 317 319 321 321 321 321 321 321 321 321 321 319 315 313 312 313 316 315 314 314 316 316 316 321 328 336 341 340 344 348 348 351 352 353 355 354 353 353 353 354 354 353 351 350 351 351 352 354 354 354 353 354 355 356 356 356 355 357 358 357 356 357 358 358 358 357 358 356 354 354 354
318 318 317 317 318 318 318 319 319 319 319 319 319 317 315 316 316 316 318 320 321 321 321 321 320 321 321 321 319 315 313 315 319 322 319 314 314 316 316 316 318 326 339 344 344 346 348 348 351 353 354 355 354 353 353 353 353 353 353 350 351 353 352 353 354 354 354 354 355 355 356 357 356 356 356 357 356 356 357 358 357 358 358 358 357 355 353 353
319 318 318 318 318 318 319 320 320 320 321 320 319 319 316 316 316 315 316 319 321 321 321 320 320 320 321 321 320 315 313 318 322 324 321 314 314 315 316 317 315 326 342 345 346 347 348 349 350 353 355 355 355 353 353 353 353 353 353 352 353 354 353 353 354 355 355 354 355 355 356 356 357 357 356 357 357 356 357 357 357 358 357 358 358 355 354 353
320 319 318 318 318 319 319 320 321 321 322 322 321 320 318 316 316 315 315 317 320 322 321 320 319 320 321 321 320 315 314 320 321 322 323 315 315 315 316 317 314 330 345 345 346 346 346 348 350 354 355 354 354 353 353 354 353 352 353 354 354 355 355 355 354 356 355 355 356 356 356 356 356 356 356 357 357 357 357 358 357 358 356 357 358 356 353 353
321 320 320 319 318 318 319 320 321 321 321 321 322 321 320 317 316 316 316 316 319 322 321 320 319 319 320 321 320 316 316 320 320 321 323 317 315 315 317 317 314 332 345 344 345 345 345 347 350 354 355 355 354 353 353 354 353 352 352 353 354 355 356 356 355 355 355 355 357 357 357 357 356 355 355 357 356 356 357 357 358 358 357 358 358 356 354 354
321 320 320 320 319 319 319 320 320 321 320 320 321 322 321 319 317 317 316 316 318 321 322 320 319 319 320 321 320 319 318 319 318 320 323 319 315 315 317 316 316 333 343 342 344 343 344 346 349 353 354 355 354 352 354 354 354 353 352 353 354 355 356 356 355 356 356 356 356 357 357 357 355 355 355 356 356 356 357 357 358 358 357 358 358 357 355 354
320 320 320 320 319 319 319 320 320 320 320 319 319 320 322 320 317 317 316 316 317 320 322 320 319 319 320 320 320 320 319 318 316 320 324 318 315 314 317 317 320 335 342 342 343 341 342 344 348 352 354 355 354 353 355 354 353 353 354 354 355 356 356 356 356 357 357 356 356 356 357 356 355 355 355 356 356 357 358 357 357 358 357 357 357 357 355 355
319 319 319 319 319 319 319 319 319 319 319 319 319 320 321 321 318 317 316 316 317 320 321 320 319 319 320 320 321 320 318 319 319 324 324 318 315 314 319 320 319 333 342 342 342 340 341 343 346 351 352 354 354 353 354 353 352 354 353 353 354 355 356 357 357 358 357 356 356 355 355 356 356 354 354 355 356 357 357 356 357 357 357 357 357 356 355 355
320 319 319 319 319 319 319 320 319 319 319 319 320 319 321 321 318 317 316 316 317 320 321 320 319 319 320 320 323 321 317 320 325 328 325 318 314 315 327 329 325 336 343 342 342 341 341 343 347 350 351 353 353 353 353 352 352 352 351 352 354 354 356 357 358 359 358 357 355 354 355 355 355 353 354 355 356 357 356 356 357 356 357 356 356 356 355 355
321 321 319 319 319 319 319 319 319 318 318 319 319 319 321 320 317 317 317 316 317 320 321 320 319 319 320 321 324 322 317 320 326 330 323 318 322 331 342 341 337 342 344 341 342 341 341 344 346 350 351 350 350 351 350 349 348 347 349 352 355 354 356 357 359 358 357 357 355 354 353 353 354 353 355 357 356 357 356 356 356 355 356 356 356 356 355 355
322 321 319 318 319 319 319 319 318 318 319 319 320 320 321 319 317 316 317 317 317 319 320 320 319 319 320 323 323 319 316 321 326 327 321 325 338 343 345 344 343 345 343 341 341 340 341 342 345 349 350 348 349 350 348 346 346 347 349 352 353 350 352 358 359 358 357 356 354 354 349 348 353 352 355 357 355 356 356 356 356 354 355 356 354 354 354 355
322 321 319 318 319 319 319 319 318 319 319 319 320 320 320 318 317 317 317 317 317 319 320 320 320 319 321 323 320 316 316 322 327 327 326 336 344 341 339 341 341 341 339 340 341 341 340 340 341 344 346 346 348 347 346 346 346 348 349 351 351 341 345 358 359 356 358 356 355 354 347 345 352 353 354 357 356 357 355 355 355 354 353 355 354 353 353 355
320 319 318 318 319 319 319 318 318 319 319 320 321 321 320 317 317 317 317 317 318 319 319 320 320 321 323 323 320 317 319 328 336 332 330 336 337 333 335 336 336 335 333 334 336 337 336 337 338 341 344 344 346 346 347 347 347 349 344 342 346 339 343 358 357 353 355 354 355 353 346 344 352 352 352 355 356 357 355 355 356 355 353 354 354 354 354 355
319 318 318 318 319 320 319 318 319 319 320 321 321 320 318 316 317 317 317 317 318 318 319 321 320 321 325 323 320 319 324 335 339 330 328 333 332 333 334 333 334 333 330 330 329 330 331 333 335 337 341 343 344 345 345 344 344 349 342 336 340 338 340 349 355 354 353 352 354 352 349 348 350 351 352 353 355 356 356 355 356 356 355 355 355 355 355 355
319 318 318 318 319 319 319 319 319 319 320 321 319 318 316 316 317 317 317 318 318 319 320 322 321 321 325 322 319 321 325 330 330 323 326 333 333 334 332 332 335 332 330 330 328 328 329 331 335 337 340 341 342 344 342 337 335 341 343 338 340 341 338 340 348 355 352 350 350 351 352 350 349 350 352 353 355 356 355 355 355 356 356 356 355 355 355 356
319 318 318 318 319 319 318 319 319 319 320 319 317 317 316 317 317 317 318 318 319 320 320 322 322 323 324 321 319 322 324 324 323 322 326 329 332 333 332 332 334 331 330 330 328 328 329 333 337 338 341 341 343 344 339 337 337 337 339 339 339 341 340 338 343 349 350 349 350 351 352 351 350 350 352 354 355 356 356 355 354 355 354 355 355 354 354 356
320 319 319 319 320 319 319 318 318 318 318 316 316 316 317 317 317 318 318 318 321 323 323 323 323 322 322 321 321 323 323 323 324 324 326 327 329 331 331 330 331 330 329 328 327 328 329 333 336 336 339 341 343 343 341 342 342 341 342 342 340 338 339 340 342 345 346 346 350 352 349 350 351 350 352 354 356 356 355 354 355 355 355 356 355 354 354 356
320 320 319 319 320 319 320 318 317 317 317 317 317 317 320 322 322 323 320 318 321 322 323 324 323 322 320 321 322 323 324 324 325 327 327 327 329 330 330 330 329 328 327 327 327 326 328 331 333 336 338 341 342 343 343 344 344 345 345 345 343 337 338 342 342 344 346 344 346 350 348 350 352 351 354 355 355 357 355 354 354 354 355 355 355 354 354 356
320 320 319 319 320 320 319 318 317 317 317 317 317 320 324 325 325 326 324 323 322 320 321 322 322 322 321 322 322 323 325 325 326 328 326 326 329 330 330 330 329 328 327 327 326 325 326 328 332 336 337 340 342 342 342 343 343 345 345 342 339 337 337 341 344 344 346 344 345 351 350 350 353 350 353 355 354 355 356 355 354 354 355 355 355 356 355 356
320 320 320 319 319 320 319 319 317 317 317 318 318 319 321 322 323 323 322 325 324 322 321 321 321 322 321 321 321 322 324 327 327 327 327 326 328 330 331 330 329 328 328 327 326 326 326 329 332 334 334 337 339 342 342 342 344 344 343 339 335 336 336 340 348 348 346 344 345 351 350 349 353 350 351 355 355 355 355 356 355 355 355 355 356 356 355 355
320 320 320 319 320 320 320 320 318 317 318 318 318 319 320 322 322 321 321 325 325 323 322 322 322 322 322 321 322 321 325 328 328 328 327 325 329 330 332 331 329 329 328 326 327 327 327 330 334 335 335 336 337 340 341 342 343 342 340 335 332 335 334 333 343 350 348 346 346 349 349 350 354 351 350 353 355 355 354 355 356 355 355 354 354 355 355 355
320 320 319 319 319 320 321 321 320 318 318 319 318 319 321 322 322 321 322 326 326 324 324 323 323 323 323 323 322 322 325 327 329 330 326 325 328 329 331 331 329 329 327 327 328 328 329 334 340 338 336 336 338 339 341 341 340 341 340 336 333 336 334 332 339 346 346 347 351 350 344 346 353 352 351 353 354 354 353 354 355 354 354 354 353 354 356 355
320 319 319 319 319 320 321 321 321 320 319 320 320 321 322 322 322 321 322 326 325 324 325 324 323 324 324 323 322 323 325 326 327 329 326 325 327 328 330 331 329 328 327 326 327 327 330 336 340 340 338 339 339 340 341 340 336 336 339 338 335 335 337 338 340 342 338 339 350 348 335 339 351 352 350 351 352 353 352 353 354 353 354 353 354 355 355 355
319 319 319 319 319 320 321 323 322 319 320 321 322 322 322 322 323 321 324 327 323 323 326 325 324 325 323 323 324 325 323 323 327 329 326 325 326 328 329 329 329 328 328 327 327 327 328 333 337 338 339 339 340 340 340 339 334 332 336 338 337 338 338 339 340 338 332 333 346 348 335 335 345 351 351 350 351 353 351 351 354 354 354 353 354 354 355 356
320 319 319 319 319 320 321 323 322 320 323 323 321 322 322 323 323 321 324 323 319 323 325 324 325 324 324 325 325 324 322 323 328 328 327 326 327 329 329 329 328 326 329 328 325 327 329 331 335 336 337 339 338 339 339 339 334 331 337 338 337 340 340 341 340 336 336 336 343 348 342 335 337 347 352 350 350 353 352 351 353 355 354 353 353 355 355 355
320 319 319 319 320 321 321 321 321 322 324 323 322 322 322 323 322 323 325 321 320 324 323 323 324 323 324 326 325 325 325 325 326 327 328 327 328 331 329 329 330 327 330 328 322 327 332 332 334 336 337 338 338 338 338 338 335 335 338 337 337 341 342 342 340 337 340 340 334 340 345 334 334 348 353 350 351 352 352 351 352 354 355 354 354 355 355 354
319 319 320 320 321 322 320 319 321 322 322 323 322 321 322 322 322 326 326 321 321 323 323 322 323 324 325 325 325 327 327 325 325 328 330 328 330 334 331 331 334 330 331 329 325 330 335 335 337 337 337 338 337 338 337 336 337 337 338 336 338 341 343 344 340 334 337 338 330 332 339 332 332 345 350 348 349 351 352 350 351 354 355 355 355 355 354 354
319 319 320 321 323 322 320 319 321 322 322 322 322 322 322 322 324 326 322 320 321 322 322 322 323 326 326 325 326 327 326 327 329 330 330 330 331 335 334 335 336 332 333 332 328 329 333 336 339 337 338 338 337 338 336 337 337 336 336 336 336 338 343 343 341 336 333 333 330 330 336 334 332 340 347 348 348 348 352 350 350 354 355 355 354 354 354 354
319 320 321 323 324 321 320 321 321 322 322 322 321 322 323 325 327 324 320 321 322 321 321 322 322 324 325 326 327 327 326 328 331 329 329 330 331 333 334 334 334 333 333 332 331 331 332 334 336 337 338 338 337 336 337 338 337 336 336 334 333 333 335 335 334 336 331 327 329 331 336 335 331 336 344 347 347 345 349 351 350 351 354 355 353 353 353 353
319 321 323 325 323 320 321 322 321 322 321 321 322 323 325 326 324 321 319 322 320 319 322 323 322 323 325 327 327 326 326 329 330 327 327 328 329 332 332 332 333 329 327 328 329 331 332 334 335 336 338 339 336 334 336 336 337 336 335 331 328 326 328 326 325 328 326 325 330 335 336 334 331 336 343 346 345 344 348 352 351 352 353 354 353 352 352 352
320 323 326 326 322 319 321 321 320 321 320 321 323 326 328 325 322 322 322 322 320 320 323 323 322 323 325 326 326 326 327 329 329 327 327 328 329 331 331 332 334 330 327 328 326 325 328 331 333 334 337 338 336 332 331 333 335 335 332 328 326 325 326 325 323 324 324 325 331 339 338 332 331 336 342 342 342 346 350 352 353 353 353 352 352 353 352 353
322 326 327 325 321 319 320 320 320 320 320 322 325 329 328 323 323 325 324 323 322 321 322 323 322 322 324 325 325 326 326 327 329 329 328 328 327 329 330 332 334 334 333 330 326 325 323 324 329 333 333 334 334 333 332 334 334 334 335 333 327 325 326 325 323 322 324 324 327 336 337 328 328 338 342 341 342 345 350 353 353 352 353 352 352 353 352 352
325 327 326 324 321 319 320 319 320 321 321 324 328 329 325 322 323 325 325 325 324 323 322 321 323 323 323 325 325 326 326 325 327 329 329 329 327 327 328 331 333 335 334 329 327 328 323 323 329 332 332 332 333 333 335 334 332 333 336 332 327 328 329 325 323 324 324 324 326 330 331 330 334 341 343 343 344 343 349 353 354 352 353 353 352 353 351 350
326 327 325 323 320 319 319 319 320 321 322 325 326 325 325 325 325 326 328 327 325 324 322 321 322 322 321 323 324 325 326 325 326 327 329 330 329 329 329 329 331 332 332 330 328 327 322 322 330 332 331 331 331 333 334 332 330 332 330 327 330 332 331 324 323 326 325 325 327 326 325 330 335 339 344 347 345 343 348 352 353 353 352 352 352 352 351 351
326 326 324 321 319 319 319 319 320 321 322 325 324 325 327 327 328 328 329 328 325 324 322 319 320 321 319 320 322 325 326 325 324 324 326 327 327 329 330 330 331 331 332 332 330 330 325 323 329 331 329 330 332 331 332 331 332 330 326 328 332 332 332 327 323 325 325 323 326 324 323 326 327 332 342 348 345 345 348 347 350 352 353 352 352 351 352 352
325 325 324 320 318 319 319 319 320 321 323 325 326 328 329 328 329 328 328 328 325 324 323 320 320 320 319 317 320 324 324 322 322 322 323 324 324 327 329 329 331 332 333 333 331 332 329 323 326 330 329 329 331 329 328 331 332 330 329 331 330 325 326 328 325 324 324 324 325 324 324 325 325 329 336 344 346 347 347 347 347 350 352 353 352 352 351 352
325 328 328 321 317 318 319 318 319 322 323 325 328 330 328 327 329 329 328 329 326 325 323 321 321 321 320 318 319 322 322 321 321 321 320 321 322 325 327 327 329 332 333 334 332 331 332 324 323 329 330 329 329 327 326 327 330 331 329 331 330 327 325 325 325 325 324 324 325 324 324 325 328 333 336 340 346 347 346 346 346 348 352 351 350 351 352 351
326 329 328 320 319 320 320 320 321 324 325 326 329 329 328 328 329 329 329 328 327 326 324 324 323 321 320 320 319 321 321 321 321 320 321 322 323 325 328 328 329 330 331 333 332 331 332 327 322 327 329 325 325 327 327 327 328 327 326 326 327 328 328 327 325 325 325 324 324 325 324 324 330 338 340 341 346 346 347 346 345 348 349 349 349 350 350 350
326 329 327 321 321 323 323 324 326 327 327 328 329 328 328 329 329 329 329 328 329 328 327 326 325 323 322 321 321 321 321 321 321 321 321 322 322 323 327 329 330 330 330 331 332 331 331 329 324 324 325 322 325 330 330 330 329 328 326 325 326 326 325 325 323 325 326 324 324 325 323 324 332 339 339 341 344 346 347 346 346 347 347 346 347 348 349 349
326 329 326 322 323 324 325 328 329 328 328 329 329 328 329 329 329 328 329 329 328 328 328 327 325 326 325 324 324 323 321 321 321 321 321 322 322 323 325 329 331 332 330 330 331 331 331 330 326 323 325 326 329 331 330 329 330 330 328 328 329 327 324 321 321 324 325 325 326 325 322 327 336 340 338 342 346 347 347 346 345 344 343 342 344 346 348 349
328 329 325 323 324 325 326 328 328 328 329 329 329 329 329 329 329 328 329 329 328 328 328 326 325 327 327 327 327 325 323 323 321 322 322 321 323 324 323 326 329 330 330 329 329 332 332 330 325 323 326 328 329 330 330 329 329 327 328 328 328 327 327 326 327 327 325 323 323 323 321 327 336 341 340 342 347 348 347 345 344 343 341 342 343 344 347 348
328 328 326 324 324 325 328 329 328 328 329 329 330 329 329 328 328 328 329 328 329 328 327 328 327 328 329 329 329 326 325 324 323 323 324 323 325 326 325 324 325 327 327 327 329 330 328 328 326 322 322 322 323 326 326 325 327 326 327 329 328 328 330 329 330 330 324 321 323 321 320 325 335 342 340 340 347 348 348 346 345 344 343 343 344 344 346 348
327 327 327 326 325 326 328 329 329 330 330 329 330 329 329 328 328 328 328 328 329 329 329 329 329 329 330 330 330 328 327 327 326 326 328 327 329 330 329 327 326 327 327 327 330 329 327 328 328 322 319 319 318 321 322 322 325 326 326 327 328 328 329 328 327 324 321 324 326 322 320 326 334 338 337 337 342 347 349 348 346 345 344 344 345 345 347 348
329 328 328 327 327 328 328 327 329 330 329 330 330 329 328 329 328 327 328 329 329 329 330 330 330 331 331 331 331 330 330 331 329 330 330 330 330 330 330 330 329 330 330 328 329 329 328 331 331 326 323 322 321 323 326 326 324 323 324 325 326 327 329 329 324 320 323 325 324 325 326 327 332 334 335 336 340 346 350 349 347 346 344 345 347 347 348 348
328 328 328 328 328 328 328 328 329 330 330 331 331 330 329 328 329 328 328 328 329 329 330 329 330 330 330 331 331 330 331 331 331 331 331 330 330 330 330 330 330 332 333 330 329 330 329 327 328 328 326 327 327 327 328 327 324 323 324 325 325 327 329 329 324 324 329 323 320 332 340 331 330 334 335 338 340 342 347 350 350 350 347 346 348 349 350 351
327 328 328 327 328 329 327 328 329 329 330 331 330 329 329 329 329 329 328 328 329 329 330 330 329 329 330 331 331 330 331 331 331 332 331 330 331 330 330 331 332 334 335 332 329 331 329 324 325 327 326 327 329 328 327 328 326 326 326 325 328 328 329 329 327 329 333 325 323 339 344 335 334 335 336 339 341 341 346 350 350 351 350 349 349 350 351 351
326 327 326 325 327 328 327 326 328 329 329 330 331 329 328 329 329 328 328 329 330 329 330 330 329 329 329 331 331 332 332 330 330 332 332 331 332 331 331 331 330 333 334 331 330 331 327 326 329 327 325 326 328 328 327 327 325 326 327 329 330 330 329 331 331 333 336 330 331 338 338 335 335 334 336 342 341 342 347 350 349 351 352 352 352 351 350 350
326 327 326 326 326 327 327 326 327 329 327 329 331 329 328 328 328 328 328 328 329 329 329 330 329 328 329 331 331 331 330 329 329 331 331 330 332 331 331 331 330 330 331 329 329 330 326 326 329 328 323 323 325 326 326 326 326 327 330 332 331 329 329 330 332 334 335 334 336 336 333 334 337 339 342 344 342 343 349 350 350 350 352 354 354 351 351 350
322 322 323 326 328 327 327 326 326 328 327 329 330 329 329 328 328 328 327 327 328 329 327 328 328 328 329 331 330 328 328 328 329 330 330 329 331 330 330 331 330 329 330 329 329 330 327 326 328 326 320 320 323 324 324 327 328 327 327 330 331 328 329 331 334 336 336 334 334 332 328 332 341 346 347 346 342 345 348 350 351 350 350 351 352 352 353 352
322 322 321 326 328 326 325 326 325 326 328 328 329 329 328 328 327 328 328 328 328 327 327 327 328 329 330 330 329 328 328 328 328 329 329 329 329 329 329 330 330 329 331 330 330 331 330 328 326 324 319 318 322 325 324 326 324 321 324 330 333 334 334 335 338 342 343 340 336 332 332 339 347 349 347 344 341 344 347 347 347 349 349 346 347 349 351 352
Wind_Speed
13 13 13 14 14 14 14 13 12 11 10 9 9 9 9 9 10 11 12 11 11 11 11 11 11 10 9 9 7 6 7 8 8 10 12 13 16 14 17 19 18 18 17 17 18 18 16 13 11 10 8 6 4 4 4 3 3 4 3 1 2 3 4 5 5 6 6 5 5 4 5 7 4 1 2 3 4 5 6 6 6 8 6 7 12 18 22 22
12 13 13 14 15 15 15 14 13 12 11 10 10 9 9 9 10 11 11 12 11 11 11 11 11 10 10 9 7 7 7 8 10 13 11 10 16 17 17 21 20 18 19 19 19 19 18 15 12 12 9 6 4 4 3 3 4 4 3 1 3 5 5 3 5 6 6 7 8 7 6 6 6 3 2 4 5 7 6 7 8 8 9 12 17 20 22 23
12 13 13 14 15 15 15 14 14 13 12 11 11 10 10 10 10 11 11 12 12 12 11 11 12 11 10 9 7 6 6 8 9 9 8 10 18 19 18 21 21 19 19 17 17 16 15 14 13 12 9 5 4 4 3 3 4 3 3 1 4 6 5 2 4 6 7 8 9 9 6 6 6 3 2 4 5 8 8 8 10 11 13 16 20 22 22 24
13 13 14 14 14 15 15 14 13 13 12 12 12 11 10 10 10 11 11 12 12 12 11 11 11 11 10 8 7 5 5 7 4 3 7 13 18 19 18 20 21 20 18 16 15 13 11 13 13 10 8 4 4 4 3 4 3 1 3 3 5 5 5 4 5 7 8 8 9 9 7 7 5 4 5 5 5 8 9 11 11 12 16 19 22 23 23 24
15 14 15 15 15 15 14 13 12 12 12 12 12 11 11 11 10 11 11 11 12 12 11 11 11 10 10 7 5 4 5 3 4 3 8 15 18 19 18 19 21 20 19 17 15 13 11 13 12 9 7 4 4 4 2 4 3 3 5 4 6 6 6 8 9 8 8 8 8 8 7 6 4 5 6 7 7 3 4 10 11 12 16 20 23 24 24 24
16 16 16 16 16 16 15 14 12 11 11 11 11 11 11 11 11 11 11 11 11 12 11 11 10 10 9 7 5 4 5 2 2 1 7 15 17 19 19 18 21 21 20 18 15 14 13 13 12 9 6 4 4 3 1 3 4 4 5 5 7 8 9 11 11 9 8 8 8 7 7 6 6 6 6 8 9 3 1 5 9 12 15 19 22 24 25 25
16 16 17 17 17 17 16 15 14 12 12 12 11 11 11 11 11 11 11 11 11 11 11 10 10 9 8 6 4 5 6 4 3 3 5 12 17 19 19 19 23 23 21 19 16 15 14 14 12 8 5 4 3 3 2 2 5 5 5 6 9 10 12 13 13 11 9 9 8 6 6 6 8 6 4 7 10 7 2 2 7 12 15 19 22 24 25 26
17 17 17 18 18 18 18 17 16 14 13 13 12 11 11 11 11 11 11 11 10 11 10 10 9 7 7 5 4 5 6 4 5 3 3 11 17 20 20 21 24 23 22 20 17 16 14 14 12 7 5 3 1 2 2 4 6 7 7 9 11 12 13 13 13 11 9 8 5 5 6 7 8 6 6 8 8 7 5 3 8 13 16 21 23 23 24 24
17 18 18 18 19 19 19 19 17 16 14 14 12 11 11 11 11 11 10 10 10 10 9 9 8 6 6 3 3 5 5 5 6 4 3 12 19 21 21 22 24 24 21 19 16 15 14 12 12 7 3 2 2 3 2 4 4 5 9 12 13 14 14 14 12 9 6 4 3 4 7 7 5 5 8 10 9 7 7 6 9 15 18 21 22 22 23 23
18 19 19 19 19 20 20 19 18 17 15 14 13 11 11 10 11 11 10 9 9 9 8 9 7 5 4 2 3 4 4 4 4 4 4 13 19 22 22 21 23 23 21 19 16 15 12 9 10 6 4 3 3 4 3 5 4 5 12 15 15 16 13 10 8 4 3 2 3 5 5 3 3 4 5 6 8 8 8 9 11 16 19 21 21 21 22 22
18 19 20 20 20 21 21 20 18 17 16 14 12 11 10 10 10 10 9 8 8 8 8 7 6 4 3 2 5 4 2 3 2 4 6 13 20 22 21 20 22 21 19 17 15 14 10 6 7 6 4 3 4 5 6 6 7 10 14 14 14 12 6 5 4 3 3 2 3 5 6 3 5 5 3 4 6 8 10 11 13 16 18 21 22 22 22 21
19 20 21 21 21 22 21 19 18 16 15 13 12 12 10 9 9 8 8 7 7 7 7 6 5 3 3 4 8 7 4 3 2 4 10 16 20 20 18 18 19 17 15 15 14 13 8 5 7 7 3 3 5 5 4 6 11 14 13 11 11 7 4 3 3 4 4 1 1 5 6 5 6 4 3 5 6 8 11 13 15 18 19 22 23 23 23 21
20 21 21 22 22 22 21 19 17 16 15 12 11 11 9 8 8 7 6 6 6 6 6 5 3 2 3 4 7 8 6 5 2 6 15 19 20 18 17 16 16 13 12 12 11 11 8 4 6 8 6 7 7 6 8 11 14 13 9 7 8 4 5 6 4 6 5 1 1 5 4 1 3 3 4 6 7 9 12 14 16 18 21 25 24 24 24 21
21 21 22 22 22 23 21 19 17 16 14 11 10 9 7 6 6 5 5 5 4 4 4 4 3 1 3 4 5 5 4 3 2 11 19 22 21 19 17 17 15 12 10 10 9 10 9 5 5 8 9 8 8 9 11 12 10 8 6 4 5 4 4 8 7 6 5 2 2 5 4 4 4 3 5 6 8 10 12 15 16 17 21 26 26 24 23 22
21 21 21 21 22 22 20 18 17 14 12 9 7 6 5 5 4 4 4 4 3 3 3 3 1 0 3 4 4 3 1 3 8 17 22 23 21 19 19 17 14 11 8 7 7 8 8 8 7 9 8 7 8 10 9 7 5 5 5 2 3 4 1 7 9 6 2 2 3 5 5 5 5 4 3 6 8 10 12 14 16 17 21 25 26 24 22 22
21 21 21 21 22 21 19 18 15 12 9 6 4 2 3 4 4 4 4 2 2 2 2 1 1 1 4 2 2 2 4 6 11 17 20 19 17 16 18 16 12 11 8 6 5 5 7 9 10 10 10 8 7 7 6 6 3 4 3 3 3 5 4 2 8 7 2 3 4 5 5 6 4 3 2 6 8 9 11 13 16 18 20 23 25 24 22 21
20 21 21 21 22 20 18 16 13 9 7 4 1 1 3 3 4 3 2 2 1 2 3 2 2 1 4 1 3 4 5 7 11 17 18 16 13 13 17 15 10 10 8 5 4 4 6 9 9 8 9 8 6 5 5 3 2 1 3 4 5 6 6 3 4 7 5 3 4 5 6 6 4 3 2 7 8 9 12 13 16 17 18 22 23 24 22 20
20 21 21 21 21 19 16 13 10 8 5 3 1 2 2 2 2 2 2 2 3 3 3 3 3 2 4 5 4 5 6 7 13 17 17 15 12 12 14 12 10 10 8 7 7 7 7 8 8 6 6 7 5 5 4 1 3 5 6 6 7 7 7 7 4 3 5 5 5 5 6 5 3 2 1 6 8 10 12 13 16 19 21 22 22 24 23 21
20 21 21 21 20 17 15 11 8 6 3 2 2 2 2 2 1 1 2 3 5 3 1 6 7 1 4 10 6 6 7 9 13 15 14 14 12 12 11 9 10 10 8 7 8 10 8 6 7 6 6 6 6 7 6 5 7 9 9 8 8 8 7 9 7 3 1 6 6 5 6 4 2 1 2 5 8 10 11 13 14 17 21 22 21 24 24 21
21 22 21 21 18 16 13 9 6 4 2 2 3 4 2 2 2 2 3 6 8 4 4 5 6 3 8 11 7 7 10 10 12 13 13 14 14 13 11 10 11 10 8 6 6 10 9 6 7 8 5 4 5 6 7 9 9 10 9 8 9 9 7 8 7 3 1 6 5 3 6 5 2 1 3 6 9 10 12 14 14 15 20 22 23 23 23 21
21 22 22 20 17 14 11 7 5 2 1 3 5 3 1 3 1 2 2 6 7 7 4 2 4 1 4 7 6 7 10 8 10 13 14 13 14 13 11 11 10 8 9 7 4 7 8 7 9 9 5 2 3 4 6 8 9 9 8 8 8 7 8 8 6 2 1 4 3 2 6 5 2 1 3 7 8 9 12 15 16 18 21 24 24 22 22 21
22 22 21 20 15 11 8 6 4 1 1 3 4 2 3 3 1 3 3 3 3 5 8 6 6 4 4 5 4 6 8 10 11 13 14 14 14 11 9 10 8 6 9 8 5 5 7 10 10 8 4 3 6 6 8 9 9 8 7 7 6 6 9 5 2 4 2 3 4 2 6 4 3 2 2 7 8 8 12 14 15 18 20 20 20 21 22 22
22 22 21 19 15 9 6 4 3 1 1 3 4 3 2 1 1 3 5 3 3 4 5 7 8 6 7 7 4 5 9 11 13 14 15 15 14 10 8 10 8 5 7 9 8 7 6 5 6 6 5 6 8 8 8 8 7 6 6 6 5 7 10 5 2 2 2 4 5 6 7 3 5 4 3 6 8 8 10 11 13 16 18 20 21 22 23 23
22 22 21 18 14 8 5 4 1 0 1 1 2 3 2 2 2 3 4 4 2 5 4 7 8 7 9 6 5 9 11 10 11 14 16 16 13 9 8 9 8 6 7 10 12 11 5 3 3 2 5 7 8 7 7 6 5 6 6 5 7 9 11 10 6 5 6 6 5 7 7 3 5 6 4 6 7 8 9 10 11 14 15 19 24 23 23 23
23 22 20 17 13 8 5 4 2 1 1 1 1 1 2 2 3 2 4 4 4 5 3 7 7 7 10 8 7 9 9 8 9 14 18 16 13 9 7 7 7 7 8 11 12 11 8 4 3 1 3 5 6 5 5 5 5 5 2 3 9 12 13 13 9 7 7 3 5 5 6 1 6 7 5 6 7 7 9 10 12 15 16 19 23 23 23 22
23 22 20 16 12 6 3 4 4 2 1 2 2 2 2 3 3 2 4 4 5 5 4 7 5 8 11 9 10 10 8 9 9 14 18 16 13 9 5 6 6 7 7 8 8 7 8 7 6 6 5 6 6 6 6 5 6 4 2 5 11 13 13 13 9 6 6 4 2 4 6 2 4 7 7 7 8 9 9 8 10 16 18 18 20 22 23 22
23 22 20 16 10 5 3 5 6 3 2 4 3 2 2 4 4 3 4 4 5 3 4 5 3 8 8 8 14 10 5 11 12 13 17 16 14 9 7 6 6 7 5 5 6 4 7 10 9 10 10 8 7 6 3 4 7 4 4 8 12 13 12 11 8 5 5 7 2 6 5 5 2 5 8 9 9 10 11 9 10 15 19 20 20 21 22 22
22 22 20 14 8 5 5 7 8 6 5 5 4 2 3 4 3 3 5 2 5 2 5 5 3 8 5 8 15 6 3 15 12 13 18 16 14 10 9 8 7 7 6 7 6 3 5 9 8 8 9 7 5 4 3 5 8 5 7 11 12 11 11 8 6 5 4 6 3 4 3 6 1 5 8 10 10 10 13 14 13 15 20 21 20 20 21 22
21 21 17 10 6 4 5 8 10 9 7 6 4 3 4 3 1 4 5 1 4 3 5 6 6 8 7 10 12 5 6 10 5 13 19 16 14 9 7 7 8 7 8 10 10 3 4 3 2 3 5 4 3 4 6 7 7 7 10 13 11 9 8 7 6 5 4 5 4 2 1 6 3 5 7 8 9 10 12 14 15 17 20 22 22 21 22 23
20 18 13 7 5 2 3 6 10 9 7 7 4 3 3 2 3 6 3 4 3 4 5 6 7 9 11 12 8 6 9 6 6 16 17 12 14 11 6 5 7 8 7 11 13 9 5 3 4 6 7 6 6 8 9 10 9 10 11 11 9 7 6 5 4 4 5 4 2 4 2 6 4 3 7 7 7 10 11 13 16 19 21 22 22 22 23 24
18 15 9 5 4 1 3 5 8 8 7 7 5 2 3 3 5 4 3 3 2 6 7 7 7 9 13 11 7 7 8 7 11 16 12 8 12 11 8 6 6 7 6 8 10 12 11 9 8 10 10 8 9 10 11 10 9 9 9 7 7 5 5 5 4 3 5 2 3 5 5 5 5 1 4 6 6 8 12 15 17 20 21 22 22 23 25 25
14 10 5 4 3 3 5 5 7 7 7 7 5 4 5 5 3 1 5 3 3 6 6 6 8 9 12 10 6 8 8 7 11 13 10 9 9 8 9 7 5 7 7 7 8 9 10 10 10 11 11 10 9 8 8 8 7 6 7 6 5 5 4 4 3 3 4 3 3 5 6 5 5 2 2 4 6 9 13 17 21 24 25 25 25 24 25 25
10 6 3 3 2 3 6 6 5 5 6 5 4 6 7 3 2 4 4 3 3 4 3 6 9 9 11 9 6 8 7 7 10 12 10 10 9 9 11 9 6 7 5 5 7 7 7 9 12 12 9 10 11 8 5 5 5 5 5 5 4 5 5 4 4 3 4 2 2 2 3 5 4 3 4 2 4 10 16 22 27 29 30 29 28 26 24 25
6 3 2 3 2 3 6 6 4 4 5 5 5 7 6 1 3 2 2 4 5 4 3 6 9 9 10 8 7 9 6 6 9 9 9 10 8 8 11 10 9 8 5 4 5 6 7 6 8 9 5 7 10 10 7 6 6 5 5 5 5 5 5 5 4 4 5 6 5 0 2 7 5 3 3 3 2 8 17 24 26 27 27 26 26 24 23 24
2 2 2 2 2 3 5 5 5 5 6 5 7 6 3 2 4 2 3 5 4 5 5 7 8 9 9 5 6 8 4 3 8 8 7 9 7 6 8 9 11 9 7 5 3 3 7 5 4 5 2 2 7 8 7 8 7 4 4 5 5 4 4 6 6 6 7 8 6 1 3 6 3 4 3 2 1 7 17 23 25 25 24 23 24 24 25 26
2 3 2 3 2 3 5 6 6 5 4 6 7 2 1 3 3 2 2 2 2 4 7 8 8 8 8 5 6 9 5 3 7 7 6 7 7 7 7 7 11 13 9 6 2 3 6 4 4 5 4 6 8 6 6 7 5 1 4 4 2 4 6 7 6 5 7 6 4 3 5 6 2 4 5 5 4 8 15 20 23 26 26 25 25 25 26 27
4 4 3 3 3 3 5 6 6 4 4 8 4 2 2 3 4 4 2 0 1 4 7 7 6 6 7 6 7 10 8 5 7 7 5 6 6 8 9 7 9 13 12 9 5 3 4 4 3 6 7 7 7 7 7 9 8 4 3 2 3 4 5 5 5 4 5 5 4 5 7 7 5 3 4 6 7 11 14 17 21 24 27 26 25 25 25 25
7 6 3 2 4 5 5 5 5 3 6 7 1 2 1 2 4 4 2 0 2 5 7 4 4 5 6 6 7 10 9 6 7 7 5 5 4 5 9 9 9 12 14 13 8 2 2 6 4 6 7 4 6 7 9 10 11 9 6 5 5 6 4 2 4 5 5 5 4 6 8 6 6 7 5 4 6 11 13 16 19 21 24 25 24 24 24 24
8 3 1 1 3 5 4 3 3 4 7 5 2 3 1 3 3 3 2 2 3 6 5 1 2 4 5 4 6 10 10 8 7 6 5 5 4 4 6 7 9 12 15 14 9 3 3 6 3 5 3 2 4 7 8 8 11 9 8 5 5 5 4 4 4 5 5 5 4 6 7 5 7 8 9 9 4 9 14 15 16 19 22 24 23 24 24 24
8 4 1 2 2 3 3 2 4 6 5 2 2 2 1 2 3 3 2 3 5 4 2 1 2 4 5 4 4 7 10 9 7 5 5 5 4 4 6 6 7 10 14 14 10 6 4 5 4 2 4 4 6 7 8 6 5 7 6 6 6 4 3 5 5 4 5 5 4 5 5 4 7 7 9 11 6 6 13 14 14 17 20 20 21 23 23 24
8 5 2 2 2 3 2 2 4 4 3 1 1 2 2 3 4 4 2 2 5 4 2 2 0 2 4 4 4 6 7 8 7 6 4 5 6 3 4 5 5 7 10 11 9 7 5 4 6 5 4 6 6 5 4 5 4 3 4 4 5 4 4 4 5 4 4 4 5 5 6 5 6 6 7 8 6 3 12 15 14 17 18 17 20 22 23 24
7 3 2 2 2 2 2 4 2 2 2 1 1 1 2 4 4 4 3 0 3 2 2 2 1 1 3 2 2 5 7 6 7 7 5 5 6 3 3 4 6 7 8 8 8 8 6 4 6 7 5 7 6 3 3 6 7 8 7 7 7 5 5 5 4 3 3 3 3 5 5 3 5 5 6 7 6 4 11 15 15 18 20 21 23 23 23 24
3 0 2 2 1 1 4 4 3 3 1 2 2 2 2 3 3 3 3 2 0 1 2 2 0 1 1 1 1 6 6 4 5 6 6 5 5 3 4 6 6 8 7 6 6 8 6 5 6 6 6 7 9 7 4 4 6 9 8 8 9 7 6 6 5 4 4 4 3 4 4 2 5 4 5 5 6 6 11 16 18 19 22 24 24 22 23 25
1 1 1 3 1 1 5 3 2 3 2 1 1 1 2 1 4 4 4 5 4 1 0 1 1 1 2 0 1 4 4 2 3 4 3 3 2 2 3 6 7 9 8 4 3 7 6 5 5 5 5 6 8 8 6 5 6 8 5 4 7 9 8 7 5 4 5 6 5 5 4 3 5 3 3 4 6 6 9 16 20 20 21 23 23 22 22 24
2 1 2 1 2 0 2 3 2 0 2 2 2 2 1 2 2 4 4 5 7 4 2 2 1 1 2 1 1 3 2 2 1 2 2 2 4 5 3 5 6 9 10 4 2 6 5 4 5 6 6 6 6 5 4 3 5 5 2 2 5 8 9 7 4 4 5 4 4 5 5 4 4 3 4 5 5 6 8 13 18 19 19 21 22 23 23 24
3 2 3 3 2 1 0 3 3 2 1 1 2 2 2 2 4 3 4 4 7 7 4 3 1 1 1 1 3 5 2 1 2 3 2 2 4 5 3 4 4 8 9 5 7 8 4 4 7 8 8 4 3 1 2 3 4 2 1 3 4 6 8 8 5 4 4 4 3 3 3 5 6 7 7 6 3 5 8 10 14 16 17 18 19 21 23 24
4 1 1 2 3 3 2 2 1 1 1 2 1 1 2 0 2 1 2 3 5 6 4 4 3 0 1 1 2 3 3 3 4 3 3 2 3 5 5 3 2 4 6 8 13 10 4 5 9 11 11 9 7 6 3 4 7 6 6 6 5 5 7 9 7 4 3 5 4 1 2 4 7 9 8 6 3 2 6 9 12 15 17 18 18 18 20 22
2 1 2 1 1 1 2 1 2 2 1 1 1 1 1 0 1 2 3 2 3 5 3 3 6 6 5 2 1 1 2 2 4 4 4 3 1 3 6 3 3 2 5 10 13 9 5 6 7 8 11 10 9 8 5 5 7 7 7 7 5 6 8 9 9 6 5 6 4 3 4 7 7 7 6 6 5 3 4 8 11 12 15 17 18 19 20 21
2 1 1 0 2 2 2 2 3 2 0 1 1 1 2 2 3 3 3 2 1 5 5 3 6 7 6 4 2 2 3 2 3 5 6 5 4 2 2 2 4 5 4 7 8 5 4 3 2 4 8 8 9 8 6 7 7 6 6 6 5 6 7 8 8 6 5 7 7 5 7 8 6 5 7 7 6 3 6 9 10 11 13 15 15 18 19 21
1 1 1 1 2 1 1 1 2 3 1 1 1 1 2 3 4 4 4 4 2 4 6 5 6 6 6 7 6 6 6 6 3 3 7 6 4 4 3 2 5 6 3 5 6 4 4 2 0 3 7 7 6 5 5 6 6 5 4 4 4 6 7 7 6 4 4 6 6 6 7 4 3 4 8 7 3 1 6 10 10 10 12 12 11 12 15 19
1 2 2 3 2 0 1 2 2 3 2 2 1 1 1 2 5 3 2 5 6 5 6 7 6 3 2 5 8 7 7 8 6 6 8 7 5 5 3 3 6 6 2 2 4 5 5 4 2 4 7 4 4 5 6 5 4 6 5 2 2 4 4 3 3 3 3 5 5 5 4 2 2 5 7 4 1 4 8 11 12 11 13 14 11 10 13 16
1 2 2 3 2 1 2 2 2 3 1 2 2 2 1 2 5 4 1 2 4 6 7 7 7 4 1 4 8 9 10 11 11 10 10 10 9 9 9 8 8 6 3 2 2 3 4 5 4 5 6 4 5 4 5 5 5 7 5 2 2 2 2 2 1 0 1 4 5 3 3 4 6 7 6 2 3 6 8 11 12 14 15 16 14 10 12 14
Wind_Direction
354 352 351 349 348 347 345 342 338 332 323 313 300 290 285 281 276 272 269 268 271 273 274 279 284 287 287 290 286 279 271 266 263 246 231 215 206 200 196 192 190 186 173 168 169 160 157 165 165 159 161 165 175 177 182 210 231 237 255 304 32 34 38 16 352 354 333 324 353 340 313 316 329 52 138 172 182 165 163 172 165 171 156 128 146 150 147 149
354 351 349 346 344 343 341 338 335 330 326 318 306 294 283 276 274 271 268 266 267 269 271 276 281 288 290 291 293 286 278 272 271 260 243 210 202 200 193 192 195 192 176 173 177 166 161 167 168 163 166 177 183 189 204 216 226 245 283 352 41 28 29 5 332 336 320 316 327 308 300 305 312 344 161 197 186 174 179 176 167 172 158 143 148 148 149 152
355 351 348 344 342 340 337 335 331 328 325 321 314 303 289 277 270 268 267 264 264 268 269 273 279 287 293 295 299 291 288 287 282 271 245 209 200 197 193 192 196 194 180 177 176 169 165 164 167 168 171 186 184 188 217 224 227 251 276 343 49 14 353 345 315 312 313 312 309 303 299 289 293 309 206 219 200 189 202 184 171 177 162 152 154 152 153 156
356 351 347 344 342 338 336 333 328 325 322 320 317 309 298 283 272 267 264 263 262 265 267 273 277 285 295 298 302 298 300 289 258 227 212 203 201 196 192 191 194 191 179 175 171 170 169 161 167 175 183 191 182 198 228 216 223 278 262 322 18 349 330 343 324 304 307 304 302 305 293 284 287 269 237 242 224 197 203 192 181 181 166 158 159 157 158 160
354 350 348 345 343 339 336 332 327 323 319 317 314 310 303 288 278 270 263 261 259 263 266 271 276 283 295 300 302 291 287 271 151 172 201 194 198 194 192 191 190 185 175 172 170 169 170 165 170 182 203 204 181 203 221 212 241 276 247 286 327 320 315 322 321 306 302 297 293 298 286 290 293 254 246 248 244 208 184 193 188 183 172 166 164 160 161 165
352 350 348 346 343 341 337 334 328 321 316 313 309 306 302 290 281 274 265 260 257 260 263 269 277 283 296 302 298 274 267 288 99 245 201 189 193 190 192 189 183 180 174 173 171 172 171 171 180 187 209 217 200 214 212 198 232 271 258 278 307 309 298 302 310 299 292 288 286 292 287 284 277 261 249 244 246 258 52 189 186 183 178 172 167 164 166 169
351 349 347 346 343 341 339 334 327 321 316 310 305 299 298 289 279 273 266 261 257 258 261 269 277 283 299 303 303 276 262 295 315 270 196 189 188 187 190 184 181 179 174 176 174 176 175 179 191 192 205 223 224 229 256 226 226 258 283 296 307 303 292 298 305 298 293 289 287 285 275 262 261 269 252 241 243 237 235 184 182 181 176 171 170 171 171 172
349 348 346 345 342 340 338 333 326 320 316 309 302 293 290 286 276 272 266 261 255 255 259 266 276 286 298 305 316 277 241 254 271 260 199 187 182 186 186 179 181 179 177 181 178 179 180 186 196 194 211 229 235 225 262 267 232 239 279 301 305 301 296 301 301 297 298 293 286 261 253 253 256 271 262 247 240 223 212 186 176 176 175 174 175 175 174 174
347 346 345 343 342 339 336 331 325 319 316 309 300 290 283 280 275 271 266 260 254 254 256 264 276 285 293 314 309 267 209 220 251 263 208 178 179 185 184 180 181 179 181 184 183 184 184 193 198 200 244 252 241 248 258 272 238 234 281 300 301 299 301 303 301 298 295 287 271 240 246 254 251 262 253 236 227 210 195 184 175 176 178 178 177 177 177 177
345 345 343 343 341 338 335 330 324 318 314 308 300 289 279 275 273 269 264 257 250 251 253 261 275 280 297 326 264 246 181 210 247 260 209 172 180 184 183 186 183 179 183 185 187 188 190 203 202 210 279 284 251 262 253 271 292 280 288 296 293 293 298 298 298 294 281 262 249 250 264 261 199 239 239 192 200 202 186 180 177 178 179 179 178 178 181 180
344 343 342 342 340 337 334 329 323 317 312 308 301 291 279 271 267 263 259 252 246 249 248 257 272 277 299 267 248 249 171 215 260 242 195 173 184 182 180 187 181 179 183 185 190 191 197 208 196 211 256 274 272 269 259 266 287 291 293 295 289 286 284 278 266 234 241 240 244 266 279 249 181 231 242 150 173 187 186 182 179 180 178 182 180 179 185 184
341 341 340 341 339 337 333 329 322 315 313 307 299 294 279 266 263 258 254 248 244 245 242 252 268 280 296 258 246 256 245 249 271 213 181 172 179 174 176 184 178 180 185 188 191 191 201 203 203 223 250 298 294 286 286 283 285 287 287 290 290 274 209 218 210 187 222 239 260 280 278 224 190 219 208 169 177 178 184 186 184 181 177 182 180 180 187 186
338 338 339 340 338 336 333 329 322 316 313 306 299 292 277 263 257 251 248 247 247 244 240 250 268 292 288 253 240 248 250 257 265 188 172 163 167 172 178 178 173 181 189 194 195 192 200 201 214 239 272 288 286 300 306 292 283 281 279 279 287 273 179 186 178 177 207 162 213 278 305 143 159 171 168 173 182 181 185 187 187 179 178 184 181 182 188 185
337 337 338 339 338 335 333 330 323 318 314 307 298 287 270 254 245 240 238 241 246 240 238 248 271 296 258 261 260 247 243 259 178 164 164 160 166 177 178 174 172 176 179 186 193 194 203 215 237 256 268 268 275 295 294 281 272 270 276 254 266 311 151 174 179 181 199 148 201 265 311 27 70 113 163 174 182 188 187 187 186 178 181 186 181 182 187 185
336 336 337 338 337 336 333 330 326 322 319 313 302 282 253 236 228 221 228 236 236 227 230 248 275 284 243 254 262 239 169 120 145 159 165 166 171 176 177 177 174 170 167 170 184 200 213 226 243 256 260 255 265 281 283 274 257 250 274 255 257 323 86 164 176 193 210 143 202 261 309 1 52 87 149 173 184 194 193 186 183 180 181 182 180 183 185 184
337 337 338 339 338 336 333 332 331 330 329 325 310 261 216 211 208 213 230 226 220 210 190 204 136 225 257 224 169 165 117 127 155 165 166 167 171 176 178 177 174 173 170 162 176 203 215 224 237 252 263 260 256 269 282 274 228 205 273 316 316 324 339 150 171 191 194 154 203 236 295 341 38 62 132 177 190 197 198 187 182 182 179 178 180 182 182 184
340 338 340 340 339 336 333 334 337 339 340 342 331 183 183 194 203 215 226 211 203 155 151 129 108 227 270 203 160 152 141 159 168 161 158 162 169 177 177 172 171 175 174 176 192 203 202 213 229 241 246 246 251 268 275 259 198 208 311 318 320 325 325 337 153 178 192 226 256 229 258 315 3 24 135 176 190 198 199 190 183 181 177 178 181 182 182 186
343 341 342 341 340 337 334 336 342 348 355 7 96 157 169 191 209 214 211 182 126 131 172 169 150 234 228 177 152 131 142 168 166 158 155 157 160 168 173 169 166 169 179 204 210 205 201 206 221 236 231 224 235 249 246 299 342 327 330 326 320 323 323 332 1 142 194 258 282 253 262 301 341 356 143 170 183 196 197 190 186 180 176 178 182 183 184 188
345 343 343 343 341 337 334 336 344 355 18 53 111 123 121 137 171 233 224 186 161 155 121 173 180 353 120 141 121 120 140 148 156 158 153 150 149 153 161 165 168 173 184 197 192 194 205 209 215 234 235 221 221 233 253 304 322 320 319 313 310 313 314 323 346 50 275 284 271 260 286 306 316 360 132 169 177 191 192 185 190 183 174 177 183 185 184 187
344 343 344 344 342 338 334 336 343 356 57 103 121 127 134 167 180 162 198 217 219 251 23 144 179 42 96 118 100 130 143 138 151 162 158 150 146 146 149 157 166 185 200 193 170 186 211 228 225 230 231 227 231 237 264 291 303 307 306 301 302 304 307 321 343 34 330 294 284 270 290 291 286 79 133 167 174 186 191 181 188 187 175 179 188 186 183 185
343 342 343 344 342 337 333 339 340 338 115 127 136 146 317 317 294 103 190 225 227 243 265 196 204 250 123 117 100 131 147 150 157 169 171 160 155 155 153 162 172 191 203 201 167 172 207 236 236 237 240 232 243 257 273 284 291 293 295 299 298 304 320 331 348 46 147 290 306 272 280 275 210 157 140 166 180 188 193 183 185 190 180 181 189 185 181 183
341 340 342 343 341 334 327 338 340 294 169 164 162 186 322 328 335 28 332 242 179 220 238 224 225 238 182 157 138 133 156 167 159 168 176 170 179 183 166 181 203 194 183 195 195 177 210 239 241 244 258 230 236 257 268 275 282 285 287 291 293 323 331 332 104 124 162 286 316 292 284 282 157 190 165 174 193 189 193 191 187 191 181 178 187 184 181 183
339 338 341 342 339 330 311 321 338 283 197 188 189 219 277 266 221 360 328 273 144 165 214 214 220 218 191 195 193 161 173 177 164 169 177 176 189 199 178 191 215 200 180 198 213 213 213 235 256 250 235 235 243 248 259 270 271 275 282 287 306 336 332 328 109 129 241 263 298 298 282 260 148 176 185 185 192 176 186 195 195 197 183 177 188 187 183 184
337 336 339 340 336 327 292 288 323 183 161 185 199 217 248 286 307 333 306 272 137 135 186 200 205 203 192 189 177 177 185 186 175 173 178 180 185 192 193 203 216 214 208 212 221 238 238 93 39 265 198 226 249 238 246 266 266 269 275 291 323 331 324 317 321 308 273 234 243 282 277 217 169 185 177 171 177 167 178 191 203 207 188 183 191 188 185 185
335 333 338 338 332 322 278 249 226 180 144 205 236 263 306 323 317 321 277 252 136 123 168 181 190 200 190 181 171 178 185 189 184 172 174 182 182 177 193 211 222 221 216 220 226 244 248 176 159 213 166 213 242 237 250 278 284 275 277 337 328 321 315 310 310 301 289 231 183 271 300 152 165 193 179 162 178 177 177 188 202 201 189 194 199 189 186 187
332 332 335 335 328 313 258 216 212 211 216 231 255 282 325 327 307 300 268 230 132 124 154 160 171 170 174 184 173 172 189 185 175 170 173 184 187 188 204 194 215 244 231 225 232 246 252 229 224 253 259 250 249 250 257 275 280 277 53 354 321 315 313 313 309 285 300 339 156 236 301 341 169 193 175 168 190 184 175 192 205 195 188 199 201 189 188 190
331 329 332 334 322 284 209 198 203 194 215 232 243 266 332 320 304 303 263 195 121 125 154 135 145 150 156 182 174 177 175 144 147 171 177 183 187 201 231 193 198 244 239 223 232 225 232 236 239 251 256 254 249 248 251 272 276 296 17 334 317 318 316 317 310 280 302 326 239 201 271 295 238 176 163 166 189 192 187 197 203 195 190 195 198 190 191 193
329 328 331 330 311 274 230 217 202 191 218 229 233 261 324 317 307 292 264 174 106 136 147 113 140 155 143 166 179 211 136 139 154 177 177 185 188 198 232 222 218 228 204 212 225 164 196 229 234 246 250 237 233 253 287 284 274 300 343 321 311 310 308 309 300 289 307 313 282 172 234 287 308 140 160 170 187 200 200 199 197 195 192 192 197 194 192 196
327 328 332 327 310 286 236 215 196 197 218 222 229 266 311 324 297 250 260 101 117 178 138 122 145 158 154 161 182 225 172 168 173 158 168 189 195 210 249 230 233 233 202 219 237 190 158 206 245 272 259 235 250 280 282 279 277 302 317 304 292 282 285 292 289 302 298 284 317 58 221 299 342 144 173 185 198 206 200 196 194 195 194 192 196 197 194 198
327 328 333 329 318 285 217 197 190 199 210 212 229 282 306 302 252 242 212 106 151 156 126 146 152 154 163 163 175 189 172 170 126 144 164 187 191 214 258 224 228 238 211 219 241 252 242 240 263 262 258 265 284 283 276 274 276 293 297 289 286 271 262 275 278 300 289 258 348 13 309 298 313 169 180 187 204 204 187 183 186 191 195 192 193 197 196 197
327 329 334 336 333 209 169 177 191 199 203 217 236 265 266 232 246 259 103 97 166 141 143 169 155 157 173 172 164 168 169 149 140 155 167 178 186 205 224 208 212 226 221 217 230 246 248 246 248 242 241 254 268 270 267 263 262 275 282 280 293 280 247 258 245 244 281 318 26 351 323 289 281 280 177 177 184 187 180 178 180 185 191 190 191 196 196 196
327 331 338 350 359 163 161 170 191 203 210 227 234 231 247 223 219 58 99 150 186 154 166 168 157 170 182 183 156 154 165 147 157 173 172 180 192 199 212 209 188 203 219 218 215 223 231 236 237 234 231 232 249 268 260 245 240 252 265 269 285 285 262 262 259 258 287 339 12 338 329 287 264 331 53 160 172 176 175 175 175 178 185 187 189 193 194 194
328 337 356 14 26 160 170 172 183 202 207 217 219 228 252 237 120 65 113 170 142 138 158 152 163 176 179 184 158 154 168 146 163 185 181 191 199 195 212 217 208 225 231 215 216 218 222 225 224 231 228 214 229 257 250 229 229 235 258 278 286 293 297 288 288 299 296 323 4 350 322 297 288 14 25 47 159 173 171 172 174 177 184 185 186 189 189 192
331 357 36 41 42 149 171 174 180 189 181 195 229 239 251 213 97 81 118 105 103 132 144 148 161 169 180 189 157 162 181 141 162 189 184 195 208 200 209 209 212 239 250 226 225 229 235 224 204 214 212 191 215 239 257 275 272 255 270 290 285 287 299 301 304 318 318 320 332 40 283 313 339 37 23 34 122 175 168 167 169 174 182 183 182 185 185 189
350 58 62 57 56 145 166 169 179 184 176 212 252 250 243 94 106 134 90 88 122 154 147 158 169 170 182 192 161 181 233 166 171 193 192 197 213 208 206 201 201 220 241 235 214 222 248 252 185 194 205 209 226 230 245 267 267 258 261 260 274 304 304 291 296 308 308 308 316 307 297 320 15 89 84 82 170 176 161 158 160 166 175 180 183 186 185 187
131 95 57 47 62 148 162 165 177 180 200 249 262 249 71 48 54 54 68 83 165 154 149 166 183 183 177 175 174 191 230 216 177 191 199 202 217 220 218 205 196 205 223 234 210 207 241 239 155 180 217 225 238 239 227 244 263 261 237 244 301 328 306 290 284 281 278 286 309 321 328 338 21 103 106 101 124 153 155 157 161 166 173 180 188 190 186 186
155 113 59 50 84 141 150 163 175 178 241 265 280 45 57 41 36 33 54 110 175 170 173 168 180 205 187 175 186 186 191 195 185 196 197 192 209 216 216 217 203 205 214 228 247 231 242 259 181 213 235 205 214 255 245 239 259 262 249 339 342 271 266 286 291 284 285 298 320 332 344 353 356 29 96 104 119 144 158 164 164 169 175 182 191 192 186 183
152 113 84 85 113 138 149 167 181 214 258 262 260 80 19 47 47 20 13 202 191 201 211 179 163 215 205 185 185 178 180 182 178 196 203 184 182 191 208 214 203 206 210 217 232 194 219 269 240 212 242 197 181 239 246 225 231 250 283 334 304 261 243 257 287 297 303 311 320 336 349 4 10 9 16 45 113 149 162 167 167 170 175 181 188 189 186 181
171 141 136 158 129 145 157 172 203 249 258 254 131 114 11 33 47 11 345 238 217 211 217 159 141 212 217 198 176 171 186 196 179 191 210 191 167 163 202 210 194 203 207 209 224 218 201 258 246 155 192 225 191 217 234 210 197 225 267 270 247 268 291 284 290 297 300 306 314 333 344 10 26 6 352 6 60 156 166 169 169 170 175 179 183 186 184 181
197 227 168 139 139 135 124 163 223 247 252 268 37 70 32 9 25 14 350 236 231 228 228 102 152 192 194 192 184 175 194 211 202 204 203 183 179 172 184 202 196 195 200 204 219 228 207 232 250 175 169 218 220 208 229 238 193 199 230 231 220 226 258 274 277 273 285 298 304 324 327 357 31 9 347 4 26 155 166 165 164 165 169 171 174 179 181 180
206 230 124 154 196 126 108 215 221 249 251 147 48 53 25 342 346 4 22 219 236 256 298 309 224 166 173 185 194 184 196 211 214 221 207 191 213 204 162 198 205 175 184 202 212 215 213 219 245 252 213 214 218 189 220 279 300 267 256 259 257 244 242 261 260 247 262 284 300 318 318 347 30 12 351 7 23 124 157 156 154 155 158 167 175 178 182 184
210 229 124 195 217 129 240 243 200 251 264 85 27 342 341 323 320 348 22 198 231 238 244 251 310 115 181 198 194 184 196 207 210 221 219 208 226 217 126 162 192 176 181 204 205 203 217 239 252 258 252 253 260 252 258 278 283 278 272 270 275 271 251 250 255 261 264 271 295 297 298 357 45 22 353 12 38 111 149 148 150 155 160 180 190 186 189 193
235 307 119 227 239 163 248 241 164 201 235 35 349 281 279 307 321 345 10 11 268 196 197 199 181 41 167 255 221 186 191 200 211 228 231 224 237 229 154 160 184 194 199 209 193 181 197 239 250 251 254 260 258 246 244 260 258 255 248 242 254 259 253 258 280 299 286 274 287 280 278 6 58 43 351 15 66 118 149 147 152 160 165 182 194 191 191 195
318 54 164 286 346 198 255 258 171 180 129 79 263 177 164 291 342 354 8 19 24 352 250 99 57 360 59 27 219 178 187 199 194 227 247 219 191 88 157 193 205 211 213 224 174 161 180 220 227 236 233 216 214 209 199 196 219 238 240 226 240 246 248 259 275 280 276 283 294 286 289 360 60 63 359 16 77 114 147 151 159 168 172 181 191 191 190 191
258 180 184 284 29 224 286 350 346 248 114 167 194 98 130 172 50 8 354 15 24 10 356 77 54 360 75 120 137 137 197 275 158 188 230 185 143 101 134 199 217 230 229 237 187 179 199 214 204 231 232 198 192 197 189 203 217 215 210 216 239 241 236 238 254 257 261 280 281 273 298 350 26 46 29 24 69 111 141 157 164 172 176 178 183 187 188 189
263 219 167 172 164 204 139 38 331 289 118 204 178 68 343 147 112 25 348 19 33 25 24 61 100 236 100 137 137 115 117 17 73 140 143 137 142 119 143 193 232 252 245 227 206 206 225 226 216 241 255 255 282 306 28 331 287 265 260 248 248 247 238 238 255 271 277 284 267 266 306 328 339 356 17 22 51 113 141 164 167 169 174 176 179 182 185 189
277 294 79 171 170 186 173 120 333 316 11 312 304 35 343 92 144 72 27 32 22 17 24 57 63 8 23 27 169 112 89 87 92 96 90 90 120 132 152 189 283 268 241 221 215 215 233 227 218 235 250 263 285 293 317 310 290 295 298 279 262 251 240 237 245 265 286 277 272 27 4 311 321 344 7 20 14 95 136 164 169 166 171 175 177 178 181 186
288 25 23 323 241 200 169 90 6 352 25 316 322 352 329 39 126 80 46 26 11 3 351 72 63 41 36 17 250 137 97 108 96 71 56 54 54 151 166 157 46 83 188 203 204 209 241 234 214 227 244 255 267 272 280 279 273 277 277 274 269 253 235 232 248 265 266 265 282 13 341 310 320 338 11 25 347 344 106 144 164 163 166 173 175 178 182 185
348 51 95 235 301 351 29 18 332 297 350 352 344 33 9 36 76 67 16 328 58 25 2 48 61 37 39 38 360 67 53 30 82 65 29 16 6 355 174 138 59 64 137 177 182 205 260 248 214 249 258 260 261 265 269 258 253 255 259 264 267 256 241 237 256 274 262 265 284 306 306 311 334 354 5 7 341 345 101 129 155 160 162 169 176 181 185 190
8 12 35 247 257 354 23 310 271 243 213 235 214 80 23 22 51 61 23 358 38 48 21 32 47 30 35 50 57 72 48 10 14 19 351 346 1 13 31 56 29 32 86 153 166 192 237 242 359 281 265 250 243 245 233 230 235 234 238 252 252 246 241 241 255 268 259 265 279 291 301 318 30 359 336 339 337 144 130 135 148 156 159 160 173 191 191 195
85 55 6 277 248 142 233 244 258 248 214 195 190 64 62 41 29 19 34 28 25 37 27 14 15 7 40 67 59 51 25 351 321 311 312 307 310 326 335 340 342 352 37 141 168 182 219 246 243 256 254 220 183 204 200 194 225 231 215 207 239 242 241 243 262 283 289 296 292 288 304 346 12 331 316 313 231 179 152 136 135 148 159 157 166 199 207 205
91 75 6 294 253 180 234 225 222 238 225 79 54 31 11 42 21 338 294 92 52 34 24 2 347 327 185 77 37 4 339 319 303 297 290 279 279 282 279 283 295 300 305 299 229 187 229 258 241 244 253 188 149 187 195 187 229 235 211 192 239 266 268 249 241 250 296 307 307 315 341 336 325 315 303 277 196 183 158 140 139 152 162 157 152 180 210 212